This demonstration page uses our WeatherBlox Daily Observations layout. Learn more.

Left ArrowRight Arrow

36.19886, -115.1175

Hourly Observations for November 8, 2015

Temp ( °F °C ) Dew Point ( °F °C ) Humidity (%) Winds ( mph kmh ) Pressure ( in mb ) Visibility ( mi km ) Precip ( " mm )
12:53 am 00:53 Clear 48 8.9 25 -3.9 41 41 NNW 8 13 30.14 1021 10 16 0.00 0.00
1:53 am 01:53 Clear 47 8.3 24 -4.4 41 41 NW 7 11 30.13 1020 10 16 0.00 0.00
2:53 am 02:53 Clear 46 7.8 26 -3.3 46 46 WNW 6 9 30.11 1020 10 16 0.00 0.00
3:53 am 03:53 Clear 46 7.8 26 -3.3 46 46 Calm 30.11 1020 10 16 0.00 0.00
4:53 am 04:53 Clear 44 6.7 28 -2.2 53 53 W 3 6 30.12 1020 10 16 0.00 0.00
5:53 am 05:53 Clear 42 5.6 27 -2.8 55 55 NW 7 11 30.13 1020 10 16 0.00 0.00
6:53 am 06:53 Sunny 45 7.2 27 -2.8 49 49 NW 5 7 30.14 1021 10 16 0.00 0.00
7:53 am 07:53 Sunny 50 10 26 -3.3 39 39 Calm 30.15 1021 10 16 0.00 0.00
8:53 am 08:53 Sunny 55 12.8 26 -3.3 33 33 Calm 30.14 1021 10 16 0.00 0.00
9:53 am 09:53 Sunny 58 14.4 25 -3.9 28 28 E 3 6 30.13 1020 10 16 0.00 0.00
10:53 am 10:53 Sunny 61 16.1 24 -4.4 24 24 VRB 3 6 30.11 1020 10 16 0.00 0.00
11:53 am 11:53 Sunny 63 17.2 24 -4.4 23 23 SE 7 11 30.07 1018 10 16 0.00 0.00
12:53 pm 12:53 Sunny 64 17.8 25 -3.9 23 23 ESE 7 11 30.04 1017 10 16 0.00 0.00
1:53 pm 13:53 Sunny 65 18.3 26 -3.3 23 23 SSE 5 7 30.01 1016 10 16 0.00 0.00
2:53 pm 14:53 Sunny 65 18.3 26 -3.3 23 23 SSE 6 9 30.00 1016 10 16 0.00 0.00
3:53 pm 15:53 Sunny 65 18.3 26 -3.3 23 23 SE 6 9 29.98 1015 10 16 0.00 0.00
4:53 pm 16:53 Clear 64 17.8 26 -3.3 24 24 Calm 29.98 1015 10 16 0.00 0.00
5:53 pm 17:53 Clear 61 16.1 28 -2.2 29 29 Calm 29.99 1016 10 16 0.00 0.00
6:53 pm 18:53 Clear 58 14.4 31 -0.6 36 36 Calm 30.00 1016 10 16 0.00 0.00
7:53 pm 19:53 Clear 55 12.8 31 -0.6 40 40 NNW 3 6 29.98 1015 10 16 0.00 0.00
8:53 pm 20:53 Clear 53 11.7 31 -0.6 43 43 WNW 3 6 29.98 1015 10 16 0.00 0.00
9:53 pm 21:53 Clear 51 10.6 31 -0.6 46 46 Calm 29.97 1015 10 16 0.00 0.00
10:53 pm 22:53 Clear 50 10 31 -0.6 48 48 NW 5 7 29.96 1015 10 16 0.00 0.00
11:53 pm 23:53 Clear 49 9.4 32 0 52 52 NW 5 7 29.94 1014 10 16 0.00 0.00

Powered by AerisWeather